Location: *
(47.5681°S, 176.3065°W)
Time: 10:50:39
(UTC+00:00)

Daily predictions for brighter satellites

Satellite Brightness Start Highest point End
(mag) Time Altitude Azimuth Time Altitude Azimuth Time Altitude Azimuth
Cosmos 2369 Rocket 4.2 15:06:25 21° SSE 15:07:47 23° SE 15:12:15 10° E
SL-16 R/B 3.7 15:14:07 34° E 15:14:07 34° E 15:18:08 10° SE
Cosmos 1943 Rocket 3.3 15:28:48 39° SE 15:28:59 40° SE 15:34:15 10° ENE
ATLAS 5 CENTAUR R/B 4.3 15:32:15 18° S 15:32:20 18° S 15:36:09 10° SE
Okean O Rocket 4.3 15:37:59 10° ENE 15:41:02 18° ESE 15:44:06 10° SSE
USA 234 3.3 15:37:21 10° SE 15:43:34 71° S 15:43:34 71° S
Cosmos 2237 Rocket 3.5 15:47:20 30° S 15:47:20 30° S 15:50:18 10° SSE
Cosmos 2333 Rocket 4.3 15:50:41 16° S 15:50:41 16° S 15:52:17 10° S
H-2A R/B 3.6 15:46:14 10° SSE 15:50:19 34° E 15:50:30 34° ENE
ERS-2 4.3 15:55:00 10° SE 15:57:36 25° E 15:57:36 25° E
SL-8 R/B 4.5 16:00:38 50° ESE 16:00:38 50° ESE 16:04:15 10° E
CZ-3 R/B 4.5 15:52:07 19° NW 16:02:37 27° N 16:10:28 10° NE
SL-16 R/B 4.2 16:02:05 10° S 16:04:17 19° SSW 16:04:17 19° SSW
Cosmos 371 Rocket 3.6 16:09:01 67° ESE 16:09:03 67° ESE 16:13:57 10° NNE
Cosmos 1420 Rocket 4.2 16:11:30 46° S 16:13:00 68° ESE 16:18:11 10° NNE
CZ-4C R/B 3.4 16:16:11 24° N 16:16:11 24° N 16:18:03 10° NNE
COSMOS 2455 4.0 16:23:15 28° NNW 16:23:15 28° NNW 16:26:17 10° N
CZ-4B R/B 4.1 16:18:31 10° SE 16:21:20 21° E 16:24:07 10° NE
Landsat 5 4.0 16:22:02 10° SSE 16:25:08 50° SE 16:25:08 50° SE
Lacrosse 5 2.4 16:26:49 46° SSW 16:26:49 46° SSW 16:31:35 10° SE
Cosmos 2219 Rocket 4.3 16:36:49 13° SSW 16:36:49 13° SSW 16:38:29 10° S
Meteor 1-27 4.3 16:31:26 10° S 16:37:07 75° ESE 16:42:45 10° NNE
CZ-4B DEB 4.1 16:31:35 10° NNE 16:37:12 78° WNW 16:42:53 10° SSW
Cosmos 1386 Rocket 4.4 16:32:19 10° N 16:38:31 82° W 16:44:56 10° S
Cosmos 2221 4.0 16:34:38 10° S 16:38:52 39° ESE 16:43:01 10° NE
PAYLOAD B 4.1 16:40:14 10° NNE 16:45:51 78° WNW 16:51:34 10° SSW
ARGOS Delta rocket 4.4 16:41:38 10° NNE 16:45:57 54° ESE 16:50:23 10° S
NOAA 6 3.9 16:41:43 10° N 16:46:56 78° WNW 16:52:14 10° SSW
Cosmos 1825 Rocket 4.3 16:48:31 37° SSW 16:48:31 37° SSW 16:51:38 10° S
CZ-4B R/B 3.3 16:45:29 10° NNE 16:51:12 86° ESE 16:56:56 10° SSW
Cosmos 2369 Rocket 2.1 16:48:15 19° SSW 16:52:29 79° WNW 16:58:09 10° NNE
Envisat 3.1 16:49:08 10° NNE 16:54:15 78° ESE 16:59:27 10° S
ASTEX 1 3.5 16:50:26 10° N 16:55:20 54° W 17:00:20 10° SSW
Cosmos 1656 Rocket 4.1 16:49:42 10° SSW 16:55:23 63° ESE 17:00:54 10° NE
Cosmos 1953 Rocket 3.5 16:55:12 41° NW 16:56:28 58° WSW 17:00:52 10° S
SL-16 R/B 2.6 16:56:01 38° WSW 16:57:00 41° SW 17:02:24 10° SSE
Cosmos 1745 Rocket 4.0 16:53:49 10° NNW 16:59:51 55° WSW 17:05:58 10° S
Cosmos 2263 4.1 16:56:00 12° SSW 17:01:23 89° WNW 17:07:02 10° NNE
Cosmos 1869 3.5 16:57:28 10° S 17:01:27 70° E 17:05:23 10° NNE
Meteor 1-11 4.2 16:58:11 10° NNW 17:03:44 60° WSW 17:09:21 10° S
Cosmos 304 Rocket 3.7 16:59:33 14° SSW 17:03:48 80° WNW 17:08:38 10° NNE
Cosmos 1842 Rocket 3.6 17:01:31 10° S 17:06:04 84° E 17:10:30 10° N
H-2A R/B 2.9 17:03:39 10° N 17:07:21 48° W 17:08:04 42° WSW
Cosmos 1892 3.5 17:07:21 10° N 17:11:04 52° E 17:14:51 10° SSE
Gbstr 26 Del rocket 4.5 17:06:51 26° WSW 17:11:30 73° NNW 17:19:38 10° NE
DNEPR-1 R/B 3.8 17:09:31 30° WNW 17:11:41 61° SW 17:17:04 10° SE
ADEOS Rocket 3.7 17:06:27 10° SSE 17:12:36 62° ENE 17:19:21 10° N
Cosmos 1943 Rocket 2.6 17:10:23 26° WSW 17:12:43 38° WNW 17:17:53 10° N
BREEZE-M DEB (TANK) 4.2 17:16:13 26° WNW 17:16:49 26° NW 17:19:27 10° N
Okean O Rocket 1.6 17:12:31 10° N 17:16:57 60° WNW 17:21:25 10° SSW
ATLAS 5 CENTAUR R/B 3.7 17:14:06 10° SSW 17:19:06 27° SSE 17:23:27 10° E
Shenzhou-11 Module 3.4 17:19:12 20° N 17:19:35 21° N 17:21:30 10° ENE
NOAA 12 4.1 17:16:22 10° NNE 17:21:41 84° WNW 17:27:05 10° SSW
AQUARIUS 4.1 17:20:09 10° N 17:24:41 72° WNW 17:29:17 10° SSW
Cosmos 1452 Rocket 3.7 17:19:36 10° SSW 17:24:44 48° WNW 17:29:49 10° N
H-2A R/B 3.0 17:22:19 10° S 17:26:11 29° WSW 17:27:37 24° W
Cosmos 1689 Rocket 2.8 17:23:13 10° SSE 17:26:16 56° E 17:29:14 10° N
USA 234 3.9 17:20:20 10° ESE 17:26:28 42° S 17:30:56 18° WSW
CORIOLIS 4.1 17:21:50 10° N 17:27:14 76° WNW 17:32:41 10° SSW
Cosmos 2237 Rocket 4.0 17:29:10 13° SW 17:30:09 14° SW 17:33:04 10° S
Cosmos 1331 Rocket 4.1 17:25:33 10° SSW 17:30:51 79° ESE 17:36:09 10° NNE
FengYun 1-2 T 4.4 17:25:53 10° NNE 17:31:35 83° ESE 17:37:22 10° SSW
ERS-2 3.1 17:28:33 10° S 17:31:42 26° WSW 17:32:13 25° W
Cosmos 494 Rocket 4.4 17:26:50 10° N 17:32:05 69° ENE 17:37:25 10° SSE
Cosmos 2058 3.0 17:29:35 10° N 17:33:51 85° E 17:38:09 10° S
Radarsat Rocket 4.3 17:28:22 10° N 17:34:02 42° W 17:39:38 10° SSW
Cosmos 1603 3.7 17:31:24 10° NW 17:37:00 64° WSW 17:42:39 10° SSE
Cosmos 1408 2.9 17:35:26 10° N 17:39:05 71° E 17:42:47 10° SSE
Cosmos 1709 Rocket 4.2 17:34:10 10° NNW 17:40:06 48° WSW 17:46:12 10° S
SL-8 R/B 3.7 17:38:36 19° WSW 17:42:03 88° NNW 17:46:54 10° ENE
CZ-4 R/B 2.4 17:47:15 10° NNE 17:51:18 51° ESE 17:55:20 10° S
CZ-4B R/B 2.4 17:50:30 10° S 17:53:38 29° WSW 17:56:42 10° NW
Cosmos 724 4.5 17:48:33 10° NW 17:54:47 89° ENE 18:01:00 10° SE
SMAP 3.7 17:50:52 10° NNW 17:55:08 34° W 17:59:27 10° SSW
Cosmos 1825 2.5 17:51:22 10° N 17:55:09 71° E 17:59:02 10° SSE
YAOGAN 6 3.5 17:52:15 10° NNW 17:55:18 26° W 17:58:25 10° SW
SAR-Lupe-4 4.3 17:52:11 10° S 17:55:29 32° WSW 17:58:44 10° NW
CZ-2D R/B 4.0 17:51:47 10° NNE 17:55:38 59° ESE 17:59:33 10° S
Feng Yun 1-1 Rocket 4.4 17:52:12 10° N 17:57:59 64° WNW 18:03:58 10° SSW
Cosmos 1943 3.4 17:53:41 10° NW 17:59:14 53° WSW 18:04:54 10° SSE
Cosmos 1607 4.3 17:53:26 10° WNW 17:59:29 45° SW 18:05:28 10° SSE
FAST Rocket 4.3 17:57:54 10° SSW 18:00:41 62° W 18:04:24 10° N
In-Cosmos 22 Rocket 4.3 17:55:46 10° NNW 18:01:14 54° WSW 18:06:39 10° S
YAOGAN 1 3.3 17:57:53 10° NNE 18:02:10 57° ESE 18:06:30 10° S
Lacrosse 5 3.1 18:06:07 10° WSW 18:10:35 29° S 18:15:04 10° ESE
Cosmos 2151 3.2 18:07:00 10° N 18:11:22 80° E 18:15:46 10° SSE
COSMO-SKYMED 1 2.6 18:09:47 10° S 18:14:13 75° WSW 18:18:36 10° NNW
H-2A R/B 3.5 18:09:23 10° NE 18:14:20 42° ESE 18:19:26 10° S
Cosmos 2221 3.7 18:12:40 10° SW 18:16:11 23° W 18:19:39 10° NW
Cosmos 1076 Rocket 3.9 18:13:00 10° NNW 18:17:11 42° WSW 18:21:25 10° S
USA 81 4.4 18:17:46 10° NNW 18:22:49 44° WSW 18:27:57 10° S
CSL-04 Rocket 4.1 18:19:53 10° NNE 18:25:27 73° ESE 18:31:06 10° SSW
Cosmos 1269 Rocket 4.1 18:22:12 10° NNW 18:27:32 72° WSW 18:32:56 10° SSE
